Flag for Germany Past Weather in Neumarkt in der Oberpfalz, Bavaria, Germany — Yesterday and Last 2 Weeks

Now
70 °F

Light rain. Partly sunny.


Feels Like: 70 °F
Forecast: 61 / 77 °F
Wind: 3 mph from North

Location: Hohenfels

Current Time: Jul 25, 2016 at 6:00:29 PM

Latest Report: Jul 25, 2016 at 4:58 PM


Visibility: N/A

Pressure: 30.04 "Hg

Humidity: 100%

Dew Point: 70 °F

Location of Neumarkt in der OberpfalzLocation

Past Weather in Neumarkt in der Oberpfalz — Graph

°F

Neumarkt in der Oberpfalz Temperature Yesterday

Maximum temperature yesterday: 68 °F (at 6:58 PM)
Minimum temperature yesterday: 63 °F (at 10:58 PM)
Average temperature yesterday: 65 °F

High & Low Weather Summary for the Past Weeks

 TemperatureHumidityPressure
High88 °F (Jul 10, 4:58 PM)100% (Jul 12, 4:58 AM)30.33 "Hg (Jul 12, 4:58 AM)
Low50 °F (Jul 15, 5:58 AM)37% (Jul 20, 3:58 PM)29.83 "Hg (Jul 11, 3:58 PM)
Average65 °F78%30.06 "Hg
* Reported Jul 10 3:58 PM — Jul 25 3:58 PM, Neumarkt in der Oberpfalz, Weather by CustomWeather, © 2016

Note: Actual official high and low records may vary slightly from our data, if they occured in-between our weather recording intervals... More about our weather records

Advertising

Neumarkt in der Oberpfalz Weather History for the Previous 24 Hours

Scroll right to see more
 ConditionsComfort  
Time TempWeatherWind HumidityBarometerVisibility
3:58 PM
Mon, Jul 25
77 °FBroken clouds.3 mph65%30.03 "HgN/A
2:58 PM81 °FPassing clouds.6 mph58%30.03 "HgN/A
1:58 PM79 °FScattered clouds.5 mph61%30.03 "HgN/A
12:58 PM77 °FPartly sunny.6 mph61%30.04 "HgN/A
11:58 AM77 °FPassing clouds.3 mph65%30.06 "HgN/A
11:04 AM73 °FPartly sunny.6 mph78%30.11 "HgN/A
10:58 AM73 °FBroken clouds.1 mph78%30.07 "HgN/A
9:58 AM73 °FMostly cloudy.2 mph78%30.08 "HgN/A
8:58 AM68 °FSunny.2 mph100%30.08 "HgN/A
7:58 AM63 °FSunny.2 mph100%30.08 "HgN/A
6:58 AM59 °FCool.N/A100%30.08 "HgN/A
6:01 AM57 °FCool.No wind100%30.11 "HgN/A
5:58 AM57 °FCool.No wind100%30.11 "HgN/A
4:58 AM57 °FClear.No wind100%30.11 "HgN/A
4:02 AM59 °FFog.3 mph100%30.11 "Hg2 mi
2:58 AM59 °FClear.2 mph100%30.11 "HgN/A
1:58 AM61 °FFog.1 mph100%30.11 "Hg1 mi
1:04 AM61 °FFog.2 mph100%30.11 "Hg3 mi
12:58 AM61 °FFog.2 mph100%30.11 "Hg1 mi
11:58 PM
Sun, Jul 24
63 °FPassing clouds.1 mph100%30.12 "HgN/A
10:58 PM63 °FPassing clouds.2 mph100%30.12 "HgN/A
9:58 PM64 °FFog.5 mph100%30.11 "Hg5 mi
8:58 PM66 °FSunny.3 mph100%30.10 "HgN/A
7:58 PM68 °FLight rain. Mostly cloudy.No wind100%30.09 "HgN/A
6:58 PM68 °FRain. Partly sunny.3 mph100%30.10 "HgN/A
Weather by CustomWeather, © 2016

See weather overviewHow to use our weather pages